Theta_e
339 337 330 328 327 322 317 316 317 319 323 325 327 329 326 319 317 322 321 321 332 334 332 332 336 335 337 336 334 328 323 316 314 329 331 335 332 333 332 328 327 328 328
337 338 332 333 330 328 325 320 316 315 315 316 318 324 327 331 331 323 332 334 326 332 332 331 333 333 334 334 332 328 320 315 328 331 333 334 330 329 329 326 323 328 328
338 336 334 335 333 330 328 324 319 315 315 326 331 333 333 329 329 318 331 334 332 331 330 331 329 327 329 330 328 322 321 324 332 332 331 330 331 328 327 323 324 324 326
337 335 334 336 334 329 326 322 319 316 316 322 333 332 332 326 329 325 329 331 331 328 328 329 328 326 324 326 323 318 329 327 330 332 331 330 330 328 322 320 323 320 325
336 334 335 335 330 325 324 321 321 319 320 320 327 330 330 324 331 325 325 326 321 324 323 324 316 318 318 318 318 325 330 329 329 328 328 326 328 325 322 321 322 317 322
336 334 335 334 328 325 325 323 324 324 321 319 319 320 320 328 331 330 329 324 314 320 323 326 322 325 321 320 325 330 332 329 329 327 326 325 326 323 323 322 320 322 318
336 335 336 334 328 325 329 328 324 330 326 322 315 318 316 328 331 330 331 328 319 325 330 329 327 329 328 323 325 328 329 329 328 327 325 324 324 325 325 326 323 329 332
336 335 335 333 331 328 333 331 330 331 331 331 328 322 311 328 330 328 331 326 320 326 330 328 328 327 325 325 323 327 328 328 327 326 325 322 323 324 323 323 327 328 328
335 336 335 334 332 332 334 333 333 329 334 332 321 316 317 320 326 323 329 325 321 321 328 328 327 326 325 324 323 324 329 328 326 325 323 319 323 324 323 321 324 326 325
335 334 336 335 333 334 336 335 335 328 336 333 322 315 315 312 318 318 322 326 321 323 326 327 327 326 323 322 322 323 325 327 325 324 322 321 324 325 321 321 324 323 324
337 336 336 336 334 335 337 336 333 328 336 333 328 320 314 313 314 317 321 325 323 325 321 325 324 323 323 321 322 320 321 324 325 324 321 322 323 322 320 322 322 323 322
337 337 337 336 334 334 334 336 332 328 335 335 331 326 325 317 314 313 320 320 325 320 324 325 323 323 322 321 321 322 318 317 318 322 321 322 322 322 321 321 322 321 322
337 337 337 336 333 333 332 333 330 328 335 335 333 330 328 322 313 313 316 319 323 322 320 324 323 321 322 322 322 321 320 319 316 318 319 321 323 320 321 321 320 320 320
337 339 336 335 333 332 330 330 329 326 333 334 333 332 330 315 311 311 313 320 322 322 319 322 321 322 321 322 322 321 321 319 317 319 319 319 320 320 320 320 320 320 319
336 335 335 334 333 332 331 329 329 325 330 333 333 333 331 324 317 312 312 319 322 323 320 321 323 323 322 321 321 321 321 319 317 320 319 319 321 318 318 320 320 320 319
334 333 332 332 331 331 330 330 328 325 326 331 331 332 331 330 329 323 312 316 320 321 316 322 323 323 322 321 321 321 320 319 319 317 317 319 319 319 320 320 319 319 319
337 336 335 335 332 330 329 327 326 325 323 331 331 328 332 331 331 329 321 312 317 319 315 322 323 323 323 321 321 321 319 318 318 317 318 318 317 319 318 317 317 318 317
337 334 336 334 334 333 332 331 330 327 323 328 331 327 331 330 330 331 327 318 313 317 316 321 322 322 322 322 321 320 319 318 318 317 317 317 316 318 318 317 318 317 316
335 332 332 331 331 331 334 334 334 332 331 330 331 330 329 331 330 330 330 326 314 316 316 318 321 322 322 322 321 320 319 318 317 317 316 316 316 317 317 316 315 313 316
335 333 331 331 330 332 331 333 334 334 334 332 329 330 329 330 330 331 332 329 324 317 317 319 321 321 322 322 321 320 319 318 318 317 316 316 316 316 316 316 316 314 316
336 333 333 330 332 330 330 333 333 333 333 333 333 332 332 330 331 331 332 332 329 324 320 320 322 323 322 322 322 321 320 319 319 318 317 317 316 316 316 315 315 314 313
334 335 333 330 330 329 329 332 332 332 330 330 330 331 332 333 331 330 330 331 331 330 325 322 321 322 323 323 322 322 321 320 319 319 318 317 317 316 314 313 312 311 309
334 333 335 332 329 329 330 331 329 330 329 329 331 329 330 330 330 330 329 330 327 330 330 326 323 323 323 323 323 322 321 320 320 319 319 318 318 317 317 316 313 311 309
328 331 331 329 329 330 329 328 327 328 329 328 327 329 327 328 326 329 330 331 330 329 330 329 327 326 325 325 323 323 322 321 320 320 320 319 318 318 317 317 316 315 313
319 323 327 327 327 329 331 327 326 328 327 325 328 328 325 324 323 326 327 325 325 326 329 329 327 327 325 324 325 324 323 322 322 321 322 321 320 320 318 317 316 316 316
312 315 317 319 322 325 323 323 323 324 325 325 324 322 324 328 330 329 328 327 325 326 328 330 330 327 324 324 325 324 323 323 322 322 322 322 321 321 320 318 317 316 316
Wind_Speed
33 30 27 24 22 20 18 18 18 17 16 15 14 12 11 11 13 14 18 18 20 19 19 20 19 19 21 22 21 20 19 18 20 24 25 25 24 24 24 19 20 22 23
37 32 29 25 22 20 17 16 16 16 16 15 15 16 13 13 14 17 22 17 16 21 19 17 16 18 19 19 18 18 16 18 24 23 23 22 20 19 15 10 18 20 21
37 34 30 27 23 20 17 15 15 16 18 21 19 18 15 11 10 16 24 21 18 16 19 17 16 16 18 16 16 16 19 24 22 22 21 19 15 11 10 8 18 17 21
37 34 31 27 23 20 18 17 17 18 18 20 20 19 16 14 20 16 23 20 17 14 22 17 16 15 16 14 14 18 20 20 18 19 17 15 15 17 13 14 16 17 20
37 34 31 27 24 22 20 19 19 19 19 19 18 17 17 21 18 13 18 16 12 18 22 19 19 18 17 15 17 22 20 18 17 14 14 14 17 16 15 16 19 17 23
37 34 31 27 24 22 21 19 20 19 18 17 16 14 16 22 18 17 15 16 22 27 27 24 23 23 20 20 23 22 19 16 13 14 15 14 14 15 16 18 21 30 29
38 34 31 27 25 23 22 19 19 19 18 16 15 15 18 22 21 18 17 14 18 27 24 22 22 22 20 19 21 19 17 16 13 12 13 10 16 16 17 17 20 24 18
38 35 32 28 25 24 23 20 19 18 17 15 12 12 16 21 22 19 17 13 16 26 25 21 21 19 16 18 17 19 16 15 12 10 8 10 14 16 14 15 17 21 18
36 35 32 29 26 25 23 22 19 17 18 15 13 11 16 19 19 19 19 15 20 23 24 21 20 17 16 17 14 14 15 15 9 6 5 8 13 15 13 16 18 17 16
35 33 32 31 29 27 25 22 20 18 18 15 13 13 16 16 15 16 19 18 21 21 23 21 17 16 15 14 12 10 13 11 6 4 6 12 12 14 13 15 15 13 15
34 33 32 32 30 29 27 24 21 18 19 15 13 12 13 14 13 13 15 22 19 20 17 19 17 15 15 13 12 11 8 8 4 2 7 9 12 11 13 15 13 11 12
37 35 34 32 31 30 28 26 22 21 21 17 14 12 11 11 13 15 15 19 19 18 17 18 17 17 16 13 12 10 11 7 4 4 5 10 10 10 12 12 12 12 11
39 36 35 33 31 30 29 27 24 23 23 20 15 12 10 10 13 13 15 17 18 14 22 18 17 15 11 10 10 9 12 12 7 4 4 10 11 10 11 12 12 12 10
39 36 35 33 32 30 29 27 26 24 24 21 17 12 9 10 13 12 12 19 15 16 19 18 14 15 13 10 9 9 11 12 10 9 10 10 8 10 9 12 12 11 11
39 37 35 33 32 30 29 28 25 24 23 21 19 14 11 10 11 11 13 16 16 16 16 18 18 14 11 11 9 7 8 10 11 11 9 8 9 5 9 10 10 9 8
38 37 35 33 31 30 29 27 25 23 23 22 19 16 13 10 9 9 11 15 15 15 16 20 17 13 10 8 7 6 7 9 8 8 4 7 6 8 9 7 7 7 8
35 33 33 30 29 28 27 25 24 23 22 22 20 17 15 11 9 7 8 12 14 14 16 24 17 15 11 8 5 6 6 8 5 7 9 6 6 5 5 6 6 7 6
32 30 31 29 27 25 24 23 22 22 22 23 21 18 17 14 10 7 7 9 14 15 21 23 18 15 15 9 7 6 5 4 3 7 6 6 4 6 2 3 4 4 6
29 26 29 29 27 24 22 21 20 20 20 21 22 20 19 17 14 10 8 9 12 15 19 19 17 14 14 11 7 6 4 2 2 2 4 4 1 3 2 1 5 6 2
31 27 29 27 27 26 24 23 21 21 20 20 20 19 18 19 15 13 10 10 11 15 16 17 15 13 13 11 10 9 5 4 2 1 3 1 1 2 3 4 5 4 0
34 31 31 30 29 27 28 29 27 24 21 19 19 18 17 18 18 16 15 12 11 13 14 16 16 15 16 15 12 12 9 8 6 5 6 6 7 5 5 6 5 5 5
33 32 33 31 29 27 28 26 28 24 20 19 18 18 18 18 19 18 17 15 14 13 15 17 18 17 16 17 17 13 10 12 14 12 10 9 9 12 11 5 5 6 6
33 33 33 32 31 27 25 22 20 20 21 23 24 24 22 21 19 20 20 19 17 16 15 17 19 18 17 17 18 13 8 9 8 14 13 13 13 14 13 11 10 9 8
29 31 33 32 31 31 30 29 29 27 26 26 24 21 21 21 20 20 21 21 23 20 20 18 17 18 17 14 21 22 22 15 6 4 6 9 12 14 15 14 13 11 11
23 26 31 31 32 31 32 30 28 26 27 28 26 23 22 22 21 21 22 23 24 24 24 23 22 20 18 19 20 21 26 25 23 18 18 15 13 12 14 16 17 15 13
19 20 22 23 24 26 26 27 28 29 30 30 29 28 28 27 26 26 26 25 24 26 27 27 24 24 19 20 21 23 23 24 24 24 22 21 17 16 13 13 16 19 17
Wind_Direction
168 162 165 161 154 152 153 156 160 165 163 158 152 146 146 141 132 121 107 111 111 109 108 121 119 121 113 111 103 96 88 84 87 93 88 89 93 91 91 89 97 89 93
160 161 165 161 157 155 155 154 154 157 151 147 134 126 125 130 122 120 111 110 119 122 121 126 123 121 119 113 103 91 81 89 102 96 99 96 94 101 102 80 71 73 83
160 161 166 164 161 159 159 157 155 154 147 132 134 135 130 141 123 119 125 120 117 123 132 119 130 130 125 119 106 94 91 104 102 103 103 90 92 95 91 79 84 74 84
161 162 165 165 163 162 160 155 152 150 149 147 149 151 144 117 111 117 133 125 125 125 135 132 128 121 126 124 113 106 103 102 107 105 105 101 86 78 77 85 78 80 89
164 164 164 165 162 159 156 150 148 148 150 153 155 150 128 115 116 95 109 130 126 114 128 120 110 114 113 117 120 116 118 113 109 101 94 87 81 74 71 83 77 78 81
164 164 164 163 162 157 154 147 146 145 145 149 158 147 130 128 127 115 116 99 106 105 107 106 104 103 106 105 118 117 116 111 90 77 67 66 80 78 75 75 80 72 66
165 164 164 164 161 157 154 148 143 143 135 126 131 137 137 136 136 132 127 110 120 115 106 108 110 114 114 110 120 115 112 110 104 90 85 81 84 79 81 79 87 78 64
166 165 165 165 162 158 156 152 147 146 139 128 125 138 140 144 145 137 128 124 130 121 116 118 117 118 120 118 123 124 127 116 114 103 77 62 82 83 77 81 94 88 93
169 167 166 167 165 161 161 157 153 151 148 134 119 121 145 151 150 141 141 124 138 137 120 125 123 122 115 114 123 130 119 128 119 97 64 52 83 87 83 78 98 95 90
173 171 169 169 168 166 166 163 160 157 158 144 127 111 138 148 157 144 156 128 143 140 129 126 129 130 123 116 122 144 138 128 142 89 44 66 85 83 83 78 104 89 89
175 175 173 171 171 171 169 167 165 163 166 154 139 119 123 147 151 153 139 142 137 155 152 136 127 128 126 120 104 96 147 171 174 103 45 32 92 83 87 86 92 90 84
175 176 177 175 174 174 173 171 170 170 172 170 156 133 121 133 150 151 147 143 139 145 158 141 129 126 131 122 103 78 75 103 143 178 76 94 98 91 89 81 82 84 76
177 177 179 178 177 178 176 176 177 179 176 176 166 150 134 140 154 156 151 146 145 146 165 148 136 137 126 120 110 76 65 63 87 155 86 90 88 72 71 80 86 85 77
178 178 181 182 180 181 180 181 184 183 182 179 175 163 142 143 154 157 151 151 151 152 164 168 149 135 128 116 111 71 64 56 74 108 97 75 89 88 83 78 66 59 61
179 182 184 185 185 183 184 186 188 186 186 183 181 171 150 140 144 154 158 163 152 156 163 174 162 146 126 117 109 75 60 49 70 106 97 90 99 56 68 68 68 69 62
182 182 185 186 188 188 185 192 192 190 189 188 186 178 163 150 137 143 159 168 162 160 159 172 168 165 145 120 112 97 68 36 74 95 145 93 91 91 88 82 67 62 66
181 182 185 186 186 189 189 191 194 196 194 192 189 184 176 165 153 143 154 169 170 163 166 174 177 178 163 140 114 124 78 53 74 79 106 107 80 95 78 73 48 55 28
182 183 184 185 186 189 190 188 191 195 195 195 194 189 183 180 176 158 153 164 172 165 159 162 172 176 186 160 141 125 95 55 76 97 107 108 102 120 90 52 76 36 13
183 181 181 183 186 188 190 191 193 191 194 197 198 195 189 185 188 187 175 169 173 173 170 173 178 175 175 174 162 151 156 109 60 32 116 101 91 145 157 172 349 2 55
182 182 183 184 189 192 194 192 194 196 197 199 200 200 196 193 192 199 192 189 185 180 180 179 179 186 183 186 185 182 199 165 247 282 325 306 284 259 240 262 317 337 18
184 186 186 189 192 196 200 198 191 195 197 201 203 206 205 198 203 205 207 203 197 199 195 192 188 193 197 197 203 202 204 212 235 239 270 293 306 271 260 257 300 295 301
188 186 190 194 196 201 205 203 200 191 202 202 203 208 213 209 212 212 217 213 213 213 207 205 204 200 205 209 212 221 225 237 241 256 262 280 284 309 331 306 308 292 297
188 189 193 194 198 205 203 202 200 193 207 214 211 210 213 219 210 220 219 221 224 227 231 224 214 212 213 218 222 221 228 237 252 248 264 272 280 294 306 321 319 291 293
179 184 191 198 198 197 199 199 201 202 207 211 224 220 218 221 220 216 226 228 223 230 236 230 227 228 219 238 229 231 240 254 277 297 300 287 283 294 297 303 304 311 304
163 174 190 199 204 202 204 210 210 212 209 216 218 217 228 230 230 228 220 225 232 236 235 236 231 227 232 244 247 247 241 248 261 267 290 301 304 310 304 294 294 295 298
156 165 172 182 194 204 207 210 213 215 219 222 224 227 229 231 232 233 234 235 235 237 242 237 237 235 244 250 250 248 256 261 263 267 276 290 298 304 304 298 296 289 288